Terug naar catalogus

SL-8 R/B

ActiefLEO
NORAD 5175·ROCKET BODY·🇷🇺 Russia

Gelanceerd Apr 23, 1971 vanaf Plesetsk Cosmodrome

Loading…

Volgende Passages (komende 24 uur)

TLE

VersSource: Space-Track

Epoch: Sep 14, 2026, 01:44 UTC

1 05175U 71035B   26257.07238401  .00000082  00000-0  34638-4 0  9999
2 05175  74.0465 112.4964 0029936 205.9915 153.9738 14.39553105900059

Volg SL-8 R/B in realtime met AllMySat

Download on the App Store